Location: Peterborough
(44.3091°N, 78.3197°W)
Time: 06:18:45
(UTC-04:00)

Vanguard 2 - Pass Details

Date: 28 March 2023
Orbit: 552 x 2926 km, 32.9° (Epoch: 04 June)

Event Time Altitude Azimuth Distance (km) Brightness Sun altitude
Rises 11:51:32 0° 275° (W) 6,141 11.9 44.5°
Reaches altitude 10° 11:57:13 10° 263° (W) 4,722 11.5 45.0°
Maximum altitude 12:05:44 22° 220° (SW) 3,115 11.1 45.8°
Drops below altitude 10° 12:11:57 10° 174° (S) 3,314 11.7 46.2°
Sets 12:15:06 0° 158° (SSE) 3,941 11.9 46.5°
